SCP
0 0 0 0 0 0 1 1 1 1 1 1 1 1 1 1 1 1 1 0 0 0 0 0 0 0 0 1 1 1 1 1 1 1 1 1 1 1
0 0 0 0 0 0 0 0 0 1 1 1 1 1 1 1 1 1 1 1 0 0 0 0 0 0 0 0 1 1 1 1 1 1 1 1 1 1
0 0 0 0 0 0 0 0 0 0 0 1 1 1 1 1 1 1 1 1 1 0 0 0 0 0 0 0 0 0 0 0 0 0 1 1 1 1
0 0 0 0 0 0 0 0 0 0 0 0 1 1 1 1 1 1 1 1 1 1 0 0 0 0 0 0 0 0 0 0 0 0 0 0 0 0
0 0 0 0 0 0 0 0 0 0 0 0 1 1 1 1 1 1 1 1 1 1 0 0 0 0 0 0 0 0 0 0 0 0 0 0 0 0
0 0 0 0 0 0 0 0 0 0 0 0 1 1 1 1 1 1 1 1 1 1 1 1 0 0 0 0 0 0 0 0 0 0 0 0 0 0
0 0 0 0 0 0 0 0 0 0 0 0 1 1 1 1 1 1 1 1 1 1 1 1 1 1 1 0 0 0 0 0 0 0 0 0 0 0
0 0 0 0 0 0 0 0 0 0 0 0 0 1 1 1 1 1 1 1 1 1 1 1 1 1 1 1 0 0 0 0 0 0 0 0 0 0
0 0 0 0 0 0 0 0 0 0 0 0 0 0 1 1 1 1 1 1 1 1 1 1 2 2 1 1 0 0 0 0 0 0 0 0 0 0
0 0 0 0 0 0 0 0 0 0 0 0 0 0 1 1 1 1 1 1 1 1 1 1 1 1 1 1 0 0 0 0 0 0 0 0 0 0
0 0 0 0 0 0 0 0 0 0 0 0 0 0 0 0 1 1 1 1 1 1 1 1 1 1 1 1 0 0 0 0 0 0 0 0 0 0
0 0 0 0 0 0 0 0 0 0 0 0 0 0 0 0 0 0 1 1 1 1 1 1 1 1 1 1 0 0 0 0 0 0 0 0 0 0
0 0 0 0 0 0 0 0 0 0 0 0 0 0 0 0 0 0 1 1 1 1 1 1 1 1 0 0 0 0 0 0 0 0 0 0 0 0
0 0 0 0 0 0 0 0 0 0 0 0 0 0 0 0 0 0 1 1 1 1 1 1 0 0 0 0 0 0 0 0 0 0 0 0 0 0
1 0 0 0 0 0 0 0 0 0 0 0 0 0 0 0 0 0 1 1 1 1 1 1 0 0 0 0 0 0 0 0 0 0 0 0 0 0
0 0 0 0 0 0 0 0 0 0 0 0 0 0 0 0 0 1 1 1 1 1 1 1 0 0 0 0 0 0 0 0 0 0 0 0 0 0
0 0 0 0 0 0 0 0 0 0 1 1 0 0 0 0 0 1 1 1 1 1 1 1 0 0 0 0 0 0 0 0 0 0 0 0 0 0
0 0 0 0 0 0 0 0 0 0 0 1 1 1 0 0 0 0 1 1 1 0 0 0 0 0 0 0 0 0 0 0 0 0 0 0 0 0
0 0 0 0 0 1 1 1 0 0 0 1 1 1 1 0 0 0 0 0 0 0 0 0 0 0 0 0 0 0 0 0 0 0 0 0 0 0
0 0 1 1 1 1 1 1 1 1 1 1 1 1 1 1 1 0 0 0 0 0 0 0 0 0 0 0 0 0 0 0 0 0 0 0 0 0
0 1 1 2 2 2 2 1 1 1 1 1 1 1 1 1 1 0 0 0 0 0 0 0 0 0 0 0 0 0 0 0 0 0 0 0 0 0
0 1 1 2 3 3 3 2 1 1 1 1 1 1 1 1 1 0 0 0 0 0 0 0 0 0 0 0 0 0 0 0 0 0 0 0 0 0
1 1 1 2 4 4 3 2 1 1 1 1 1 1 1 1 0 0 0 0 0 0 0 0 0 0 0 0 0 0 0 0 0 0 0 0 0 0
Wind_Speed
3 3 2 2 2 2 2 2 3 2 2 2 1 1 1 1 0 2 2 5 5 5 6 6 6 6 5 6 6 7 7 7 8 8 8 8 8 8
2 3 3 2 2 2 2 2 3 3 1 1 1 1 0 1 1 2 1 4 5 5 5 6 6 5 5 5 5 6 7 7 7 7 8 7 7 7
2 2 3 3 2 2 2 2 2 3 2 1 1 1 1 2 1 1 1 2 4 5 5 5 5 5 5 5 5 6 6 7 7 7 8 7 7 7
2 2 3 2 3 3 3 3 3 3 3 2 1 1 1 1 2 2 2 1 2 5 5 5 5 5 5 5 5 5 5 5 6 6 7 8 8 8
3 3 3 3 3 3 3 3 3 3 4 3 2 1 1 1 2 2 2 1 2 4 6 6 6 5 5 5 5 6 6 5 6 6 6 6 7 7
4 4 4 4 4 4 3 4 3 3 4 4 3 2 2 2 2 2 2 2 2 3 3 3 5 7 7 7 6 6 6 6 6 6 5 5 5 6
5 5 4 4 3 3 3 3 4 4 4 4 4 3 3 3 3 2 2 2 2 2 2 3 4 4 5 7 7 7 6 6 6 6 5 5 5 6
5 5 5 6 6 7 6 5 5 5 5 4 4 5 4 4 3 3 2 2 2 2 2 2 2 3 3 3 4 6 6 7 6 6 5 5 5 5
6 5 4 4 6 7 8 10 9 8 7 6 5 5 4 4 4 5 4 4 2 1 2 2 2 2 1 2 6 6 6 6 6 5 5 5 5 5
6 6 6 6 5 6 6 7 7 8 8 8 6 5 4 3 4 4 3 2 1 2 2 2 2 1 1 2 5 5 5 5 5 5 4 4 4 5
7 7 7 6 4 5 7 7 7 6 4 3 3 1 1 1 2 3 4 4 3 2 2 2 1 1 1 2 4 5 5 4 3 3 3 2 3 4
6 6 5 6 4 6 8 7 7 6 5 6 6 6 6 6 6 6 5 4 3 2 3 2 2 1 1 1 2 3 3 4 4 3 3 2 1 3
6 6 5 7 7 8 9 7 5 5 5 5 4 4 4 4 5 5 4 3 3 2 2 2 2 2 2 1 1 1 1 1 2 2 3 3 1 2
7 6 4 7 7 8 8 5 4 5 5 5 4 4 4 4 4 4 3 2 2 1 2 2 2 2 2 2 2 1 0 0 0 0 0 3 2 2
7 5 4 6 8 8 7 7 8 6 6 6 5 5 4 4 4 3 4 3 3 2 1 1 2 2 3 3 2 2 1 1 0 0 1 1 2 1
8 6 7 6 7 6 7 8 7 6 6 6 5 4 4 4 4 4 4 4 4 3 2 1 0 2 3 3 3 3 2 1 1 1 1 1 2 1
7 7 8 8 8 8 7 7 7 7 7 6 6 5 5 5 5 4 4 4 4 4 3 2 1 2 1 1 2 2 2 2 1 1 1 2 2 1
8 9 9 9 9 9 8 8 8 7 7 7 7 6 6 6 6 5 5 5 4 4 4 3 3 3 2 2 3 2 1 1 1 1 2 3 3 1
10 10 10 9 9 9 8 8 8 7 7 7 7 7 7 6 6 6 6 5 5 4 4 4 4 4 4 4 3 1 1 1 2 2 2 3 3 1
10 10 10 9 9 9 9 8 8 7 7 7 7 7 7 7 6 6 6 6 5 5 4 4 3 3 3 2 2 2 1 2 2 2 2 3 2 0
10 10 10 9 9 9 8 8 8 8 8 7 7 8 7 7 7 7 6 7 6 5 5 4 2 1 1 2 3 3 2 2 2 2 3 3 4 4
10 10 9 9 9 9 9 8 8 8 9 8 7 7 7 7 8 8 7 7 6 6 5 4 5 4 4 4 3 3 2 2 3 3 0 3 4 4
10 9 8 9 9 8 9 10 11 9 9 8 8 7 8 8 7 7 7 7 6 6 6 5 5 4 4 3 3 3 3 2 2 2 1 2 4 5
Wind_Direction
273 259 258 254 257 273 277 274 269 238 195 161 175 137 231 232 105 235 206 160 188 198 198 200 196 195 197 201 200 200 199 198 195 197 203 207 209 214
270 269 264 253 247 251 263 269 279 280 257 143 161 129 219 224 167 249 205 165 184 189 195 191 185 188 190 189 194 196 197 196 197 199 203 207 211 215
246 246 242 248 238 228 236 251 259 263 250 233 198 221 210 217 186 226 217 204 166 170 183 185 180 183 188 191 195 193 195 196 196 197 200 205 211 215
256 244 236 223 233 237 230 235 243 251 250 242 216 224 242 211 210 217 219 202 187 150 174 181 179 183 190 196 198 192 189 189 190 195 200 206 212 216
261 250 249 235 225 219 225 229 234 236 244 239 229 231 245 218 212 212 203 198 214 162 175 184 182 185 190 196 197 196 194 196 197 200 203 207 212 219
252 250 249 246 242 231 225 226 230 231 231 227 222 222 224 225 223 214 206 185 206 187 173 179 176 185 189 192 195 197 198 200 202 201 200 204 211 218
247 243 241 253 291 279 265 243 229 230 225 224 220 221 215 213 219 219 218 195 186 184 189 190 183 191 187 189 194 194 196 194 193 195 199 207 214 220
255 249 232 221 225 227 245 259 266 254 239 225 226 224 223 217 221 226 217 212 200 172 213 206 198 202 197 189 159 175 186 187 187 190 196 206 214 221
262 255 244 232 230 230 215 218 231 244 259 262 245 239 235 220 219 221 219 229 231 173 211 212 192 200 185 142 152 177 184 186 186 187 193 204 216 227
251 251 248 242 232 244 235 228 227 220 223 236 247 249 243 234 232 236 232 226 218 183 205 215 196 193 166 143 141 161 173 178 183 185 192 203 217 229
244 244 249 243 205 229 240 235 228 217 197 236 302 308 22 245 244 215 202 209 211 186 194 222 185 196 195 161 134 150 158 161 168 181 192 204 230 239
237 232 228 248 220 216 237 235 231 222 209 195 202 202 208 193 208 224 216 219 218 200 171 205 192 194 201 154 150 159 155 146 154 168 175 179 237 254
239 233 221 202 219 218 241 247 244 248 227 217 207 199 201 197 198 214 219 230 228 218 159 194 207 213 219 190 198 194 174 167 165 148 149 143 158 270
245 240 220 190 209 219 228 230 220 231 230 214 208 204 200 195 191 192 195 206 239 219 176 206 219 213 218 223 219 188 193 12 351 264 172 147 163 177
248 244 228 196 207 213 213 213 210 219 221 216 213 208 202 194 184 177 174 160 145 123 144 232 230 217 226 231 223 211 221 232 231 261 283 280 272 255
238 222 206 205 222 229 207 207 218 221 224 220 213 200 187 182 186 181 179 176 172 156 123 83 251 235 235 234 233 227 219 206 196 253 289 287 283 277
229 226 222 215 216 219 217 211 209 208 212 214 208 199 194 193 189 188 192 192 196 184 165 141 99 82 43 307 236 227 207 209 209 235 273 280 276 274
227 229 225 220 219 218 216 211 208 209 209 209 206 202 199 196 189 184 190 197 196 183 173 168 172 174 174 104 12 256 224 229 235 245 259 264 269 269
225 232 229 224 220 218 215 213 210 205 203 205 205 202 200 197 192 188 187 190 191 184 177 180 198 210 218 206 140 357 267 231 250 258 263 271 277 295
228 231 230 226 221 217 212 210 205 199 200 202 202 200 197 195 192 190 187 187 186 183 181 188 202 218 234 237 158 146 297 271 250 260 276 286 291 272
226 229 229 225 221 215 211 207 203 198 195 194 197 196 193 192 192 190 184 176 189 190 192 186 158 183 197 181 181 173 139 77 355 305 293 281 275 259
230 228 227 224 219 212 205 202 200 196 193 194 191 192 191 192 191 189 186 185 192 193 187 162 159 181 204 217 214 185 176 163 144 146 324 310 299 290
233 229 224 220 217 209 204 200 198 195 193 192 188 188 188 187 186 186 187 188 184 181 175 170 174 186 197 205 210 204 203 221 240 238 215 184 217 247